loading
DOY 203 | 2024-07-21T09:51:57Z

DELTA 1 DEB, 1312

Orbit data source: Space-Track

DELTA 1 DEB, 1312 is space debris in LEO originally from a launch on Fri, 22 Jan 1965 UTC launched from the Air Force Eastern Test Range (AFETR). Debris objects in space refer to the collection of defunct objects orbiting the Earth. Examples of debris include non-operational satellites, rocket bodies, and fragments generated from explosions, collisions, or faulty payload assembly.

Loading next visibility...
Loading greatness...
DELTA 1 DEB details
NORAD ID1312
COSPAR ID
1965-004C
Orbit
LEO
Last TLE update19 hours ago
Origin
Flag of USGSFC (US)
ManufacturerUnknown
BusUnknown
MotorUnknown
Mass~1 kg wet, ~1 kg dry
Launch date (UTC)
1965-01-22 (59 years ago)
Launch vehicleUnknown
Launch site
Air Force Eastern Test Range (AFETR)
Object type
Payload
Rocket body
Debris
Radar Cross SectionSmall (<0.1 m²)
Predictive object data (real-time)
Latitude-20.9801°
Longitude172.20391°
Altitude757.014 km
Speed7.847 km/s
Apparent Right ascension21h 35m 02s
Apparent Declination-74° 28' 05"
Sunlit
Object is in full shadow
Predictive observer data (real-time)
Local Sidereal Time22:50:07
Azimuth185.459° SSW
Elevation-25.073°
Doppler factor1
Orbital elements
Apogee2,441.944 km
Perigee669.528 km
Semi-major axis7,933.873 km
Eccentricity0.1116993
Inclination96.3396°
RAAN159.4588°
Arg. of periapsis229.5135°
True anomaly130.59164°
Mean anomaly120.3274°
Mean motion3.07125 °/min
BSTAR0.00012987
Period117.22 mins
Definitive object data (Epoch: 2024-07-20T15:05:23.791Z)
Latitude-0.00001°
Longitude-5.7778°
Altitude2,076.493 km
Speed6.641 km/s
True Right ascension10h 37m 50s
True Declination0° 00' 00"
Sunlit
Object was in daylight at TLE epoch
TLE from 19 hours ago
0 DELTA 1 DEB
1 01312U 65004C   24202.62874759  .00000109  00000-0  12987-3 0  9990
2 01312  96.3396 159.4588 1116993 229.5135 120.3274 12.27868253641084
Epoch: 2024-07-20T15:05Z
No data available
Other satellites on launch #4 in the year 1965 (1965-01-22 UTC)

DELTA 1 DEB Visibility forecast

Observer location: 39.9160978°, -105.1181434

DELTA 1 DEB is not visible in the next 10 days
Span
Click to sort rows by Start time (UTC) header in descending order
Start Az.
Max El. time (UTC)
Max El. Az.
Max El.
End time (UTC)
End Az.